Staples, MN

2:27 AM CDT on May 24, 2017 (GMT -0500)
Staples Municipal

Weather History for KSAZ - April, 2013

Change the Weather History Date:

Friday, April 12, 2013

  Actual Average Record
Temperature  
Mean Temperature 28 °F -  
Max Temperature 32 °F 50 °F 75 °F (2015)
Min Temperature 24 °F 29 °F 15 °F (2016)
Degree Days  
Heating Degree Days 37    
Moisture  
Dew Point 24 °F    
Average Humidity 87    
Maximum Humidity 100    
Minimum Humidity 64    
Precipitation  
Precipitation 0.08 in - - ()
Sea Level Pressure  
Sea Level Pressure 29.78 in    
Wind  
Wind Speed 6 mph (NNE)    
Max Wind Speed 10 mph    
Max Gust Speed 16 mph    
Visibility 5 miles    
Events Snow    
Averages and records for this station are not official NWS values.
T = Trace of Precipitation, MM = Missing Value Source: NWS Daily Summary

Daily Weather History Graph

Daily Weather History Graph

Search for Another Location

Airport or City:

Trip Planner

Search our weather history database for the weather conditions in past years. The results will help you decide how hot, cold, wet, or windy it might be!

Date:

Astronomy

Apr. 12, 2013 Rise Set
Actual Time 6:37 AM CDT 8:03 PM CDT
Civil Twilight 6:06 AM CDT 8:34 PM CDT
Nautical Twilight 5:28 AM CDT 9:12 PM CDT
Astronomical Twilight 4:47 AM CDT 9:53 PM CDT
Moon 7:40 AM CDT (4/12) 10:43 PM CDT (4/12)
Length of Visible Light 14h 28m
Length of Day
13h 25m
Waxing Crescent, 5% of the Moon is Illuminated
Apr 12
Waxing Crescent
Apr 18
First Quarter
Apr 25
Full
May 2
Last Quarter
May 9
New

Hourly Weather History & Observations

Time (CDT) Temp. Windchill Dew Point Humidity Pressure Visibility Wind Dir Wind Speed Gust Speed Precip Events Conditions
12:14 AM 26.6 °F 19.1 °F 23.0 °F 86% 29.78 in 5.0 mi ENE 6.9 mph - N/A Snow Light Snow
12:33 AM 26.6 °F 20.0 °F 23.0 °F 86% 29.78 in 5.0 mi ENE 5.8 mph - N/A Snow Light Snow
12:53 AM 26.6 °F 17.5 °F 21.2 °F 80% 29.78 in 5.0 mi ENE 9.2 mph - N/A Snow Light Snow
1:13 AM 26.6 °F 21.2 °F 23.0 °F 86% 29.78 in 3.0 mi NE 4.6 mph - N/A Snow Light Snow
1:33 AM 26.6 °F 21.2 °F 24.8 °F 93% 29.77 in 3.0 mi NE 4.6 mph - N/A Snow Light Snow
1:53 AM 26.6 °F 21.2 °F 24.8 °F 93% 29.77 in 2.5 mi NNE 4.6 mph - N/A Snow Light Snow
2:13 AM 24.8 °F 19.1 °F 24.8 °F 100% 29.77 in 1.5 mi NNE 4.6 mph - N/A Snow Light Snow
2:33 AM 24.8 °F 19.1 °F 24.8 °F 100% 29.76 in 2.0 mi North 4.6 mph - 0.01 in Snow Light Snow
2:53 AM 24.8 °F 16.9 °F 24.8 °F 100% 29.76 in 1.2 mi North 6.9 mph - 0.01 in Snow Snow
3:13 AM 24.8 °F 17.9 °F 24.8 °F 100% 29.75 in 1.2 mi North 5.8 mph - N/A Snow Light Snow
3:33 AM 24.8 °F 16.9 °F 24.8 °F 100% 29.74 in 1.8 mi North 6.9 mph - 0.01 in Snow Light Snow
3:53 AM 24.8 °F 19.1 °F 24.8 °F 100% 29.74 in 1.0 mi North 4.6 mph - 0.01 in Snow Snow
4:13 AM 24.8 °F 17.9 °F 24.8 °F 100% 29.74 in 1.0 mi North 5.8 mph - N/A Snow Snow
4:33 AM 24.8 °F 16.9 °F 24.8 °F 100% 29.74 in 0.8 mi NNE 6.9 mph - N/A Snow Snow
4:53 AM 24.8 °F 16.1 °F 24.8 °F 100% 29.73 in 1.2 mi NNE 8.1 mph - 0.01 in Snow Light Snow
5:13 AM 24.8 °F 16.9 °F 24.8 °F 100% 29.73 in 2.5 mi NNE 6.9 mph - N/A Snow Light Snow
5:33 AM 24.8 °F 17.9 °F 23.0 °F 93% 29.74 in 2.5 mi North 5.8 mph - N/A Snow Light Snow
5:53 AM 24.8 °F 16.9 °F 23.0 °F 93% 29.73 in 5.0 mi North 6.9 mph - 0.01 in Snow Light Snow
6:13 AM 24.8 °F 17.9 °F 23.0 °F 93% 29.74 in 10.0 mi North 5.8 mph - N/A Snow Light Snow
6:33 AM 24.8 °F 16.9 °F 23.0 °F 93% 29.74 in 7.0 mi North 6.9 mph - N/A Snow Light Snow
6:54 AM 24.8 °F 16.9 °F 23.0 °F 93% 29.74 in 3.0 mi North 6.9 mph - 0.01 in Snow Light Snow
7:13 AM 24.8 °F 17.9 °F 23.0 °F 93% 29.74 in 7.0 mi North 5.8 mph - N/A Snow Light Snow
7:33 AM 24.8 °F 16.1 °F 21.2 °F 86% 29.74 in 7.0 mi North 8.1 mph - N/A Snow Light Snow
7:54 AM 24.8 °F 16.9 °F 21.2 °F 86% 29.74 in 10.0 mi North 6.9 mph - N/A   Overcast
8:13 AM 24.8 °F 16.1 °F 21.2 °F 86% 29.75 in 7.0 mi North 8.1 mph - N/A Snow Light Snow
8:33 AM 24.8 °F 16.9 °F 21.2 °F 86% 29.75 in 10.0 mi North 6.9 mph - N/A Snow Light Snow
8:54 AM 26.6 °F 20.0 °F 23.0 °F 86% 29.75 in 10.0 mi North 5.8 mph - N/A   Overcast
9:13 AM 26.6 °F 18.2 °F 23.0 °F 86% 29.75 in 10.0 mi North 8.1 mph - 0.01 in Snow Light Snow
9:54 AM 26.6 °F 18.2 °F 21.2 °F 80% 29.76 in 7.0 mi NNE 8.1 mph - 0.01 in Snow Light Snow
10:13 AM 28.4 °F 19.1 °F 21.2 °F 74% 29.76 in 5.0 mi NNE 10.4 mph 16.1 mph N/A Snow Light Snow
10:33 AM 28.4 °F 21.2 °F 21.2 °F 74% 29.76 in 7.0 mi NE 6.9 mph 16.1 mph 0.01 in Snow Light Snow
10:54 AM 28.4 °F 20.4 °F 21.2 °F 74% 29.77 in 10.0 mi NNE 8.1 mph - 0.01 in Snow Light Snow
11:13 AM 28.4 °F 19.7 °F 23.0 °F 80% 29.77 in 10.0 mi NNE 9.2 mph - N/A Snow Light Snow
11:33 AM 28.4 °F 20.4 °F 23.0 °F 80% 29.78 in 4.0 mi NNE 8.1 mph - N/A Snow Light Snow
11:53 AM 30.2 °F 21.9 °F 23.0 °F 75% 29.77 in 4.0 mi NNE 9.2 mph - N/A Snow Light Snow
12:13 PM 30.2 °F 22.6 °F 23.0 °F 75% 29.77 in 4.0 mi NNE 8.1 mph - N/A Snow Light Snow
12:33 PM 30.2 °F 22.6 °F 23.0 °F 75% 29.77 in 4.0 mi NNE 8.1 mph - N/A Snow Light Snow
12:53 PM 30.2 °F 22.6 °F 23.0 °F 75% 29.77 in 7.0 mi North 8.1 mph - N/A Snow Light Snow
1:13 PM 30.2 °F 22.6 °F 23.0 °F 75% 29.77 in 5.0 mi NNE 8.1 mph - N/A Snow Light Snow
1:33 PM 30.2 °F 22.6 °F 21.2 °F 69% 29.77 in 10.0 mi NNE 8.1 mph - N/A Snow Light Snow
1:53 PM 32.0 °F 24.8 °F 21.2 °F 64% 29.78 in 10.0 mi NNE 8.1 mph - N/A   Overcast
2:13 PM 32.0 °F 24.8 °F 21.2 °F 64% 29.78 in 10.0 mi NNE 8.1 mph - N/A Snow Light Snow
2:33 PM 30.2 °F 23.4 °F 23.0 °F 75% 29.78 in 4.0 mi NE 6.9 mph - N/A Snow Light Snow
2:53 PM 30.2 °F 23.4 °F 23.0 °F 75% 29.78 in 7.0 mi NE 6.9 mph - N/A Snow Light Snow
3:13 PM 32.0 °F 25.6 °F 21.2 °F 64% 29.78 in 10.0 mi NNE 6.9 mph - N/A Snow Light Snow
3:34 PM 32.0 °F 27.5 °F 21.2 °F 64% 29.78 in 10.0 mi NNE 4.6 mph - N/A Snow Light Snow
3:53 PM 32.0 °F 27.5 °F 21.2 °F 64% 29.78 in 10.0 mi NNE 4.6 mph - N/A Snow Light Snow
4:13 PM 32.0 °F 27.5 °F 21.2 °F 64% 29.78 in 7.0 mi NNE 4.6 mph - N/A Snow Light Snow
4:34 PM 30.2 °F 23.4 °F 23.0 °F 75% 29.79 in 3.0 mi NNE 6.9 mph - N/A Snow Light Snow
4:53 PM 30.2 °F 25.4 °F 24.8 °F 80% 29.79 in 2.0 mi NNE 4.6 mph - N/A Snow Light Snow
5:13 PM 30.2 °F - 24.8 °F 80% 29.79 in 3.0 mi Calm Calm - N/A Snow Light Snow
5:34 PM 30.2 °F - 24.8 °F 80% 29.80 in 3.0 mi Calm Calm - N/A Snow Light Snow
5:53 PM 28.4 °F 23.3 °F 24.8 °F 86% 29.80 in 4.0 mi NNW 4.6 mph - N/A Snow Light Snow
6:14 PM 28.4 °F - 26.6 °F 93% 29.81 in 3.0 mi Calm Calm - N/A Snow Light Snow
6:33 PM 30.2 °F 25.4 °F 26.6 °F 86% 29.81 in 5.0 mi NNW 4.6 mph - N/A Snow Light Snow
6:53 PM 30.2 °F 25.4 °F 24.8 °F 80% 29.81 in 5.0 mi NNW 4.6 mph - N/A Snow Light Snow
7:14 PM 28.4 °F 21.2 °F 24.8 °F 86% 29.82 in 10.0 mi NNW 6.9 mph - N/A Snow Light Snow
7:33 PM 28.4 °F 23.3 °F 24.8 °F 86% 29.82 in 4.0 mi NW 4.6 mph - N/A Snow Light Snow
7:53 PM 28.4 °F 23.3 °F 26.6 °F 93% 29.81 in 4.0 mi NW 4.6 mph - N/A Snow Light Snow
8:14 PM 26.6 °F 21.2 °F 26.6 °F 100% 29.81 in 4.0 mi NW 4.6 mph - N/A Snow Light Snow
8:33 PM 26.6 °F 21.2 °F 26.6 °F 100% 29.82 in 4.0 mi NW 4.6 mph - N/A Snow Light Snow
8:53 PM 26.6 °F 21.2 °F 26.6 °F 100% 29.82 in 7.0 mi NW 4.6 mph - N/A Snow Light Snow
9:14 PM 26.6 °F - 26.6 °F 100% 29.82 in 3.0 mi Calm Calm - N/A Snow Light Snow
9:33 PM 26.6 °F 22.6 °F 26.6 °F 100% 29.83 in 3.0 mi North 3.5 mph - N/A Snow Light Snow
9:53 PM 26.6 °F 21.2 °F 26.6 °F 100% 29.83 in 2.0 mi North 4.6 mph - N/A Snow Light Snow
10:13 PM 26.6 °F - 26.6 °F 100% 29.83 in 2.5 mi Calm Calm - N/A Snow Light Snow
10:33 PM 26.6 °F 22.6 °F 26.6 °F 100% 29.83 in 1.8 mi NNW 3.5 mph - N/A Snow Light Snow
10:54 PM 26.6 °F - 26.6 °F 100% 29.83 in 1.8 mi Calm Calm - N/A Snow Light Snow
11:13 PM 26.6 °F 21.2 °F 26.6 °F 100% 29.83 in 3.0 mi North 4.6 mph - N/A Snow Light Snow
11:33 PM 26.6 °F 22.6 °F 24.8 °F 93% 29.83 in 2.5 mi North 3.5 mph - N/A Snow Light Snow
11:54 PM 26.6 °F 22.6 °F 24.8 °F 93% 29.83 in 3.0 mi North 3.5 mph - 0.01 in Snow Light Snow